Regional Weather Roundup
Issued by NWS Kansas City/Pleasant Hill, MO

Home | Current Version | Previous Version | Graphics & Text | Print | Product List | Glossary Off
Versions: 1 2 3 4 5 6 7 8 9 10 11 12 13 14 15 16 17 18 19 20 21 22 23 24 25 26 27 28 29 30 31 32 33 34 35 36 37 38 39 40 41 42 43 44 45 46 47 48 49 50

000
ASUS43 KEAX 241811
RWREAX

WEATHER ROUNDUP FOR EASTERN KANSAS AND NORTHWEST MISSOURI
NATIONAL WEATHER SERVICE KANSAS CITY/PLEASANT HILL MO
1200 PM CST WED DEC 24 2014

KSZ040-057-103>105-MOZ028-029-037-043-241900-
...KANSAS CITY METROPOLITAN AREA...

CITY           SKY/WX    TMP DP  RH WIND       PRES   REMARKS
K.C. INTL      FLURRIES  36  33  89 NW10      29.83F WCI  28
6HR MIN TEMP:  33; 6HR MAX TEMP:  36; 6HR PCP:  0.02;

K.C. DOWNTOWN  CLOUDY    37  32  82 NW9G20    29.84F WCI  30
6HR MIN TEMP:  35; 6HR MAX TEMP:  37; 6HR PCP: TRACE;

LEES SUMMIT    CLOUDY    36  32  85 NW16      29.83F WCI  26
6HR MIN TEMP:  33; 6HR MAX TEMP:  36; 6HR PCP:  0.02;

OLATHE - IXD   CLOUDY    35  32  88 NW15      29.86F WCI  25
6HR MIN TEMP:  33; 6HR MAX TEMP:  35; 6HR PCP:  0.01;

OLATHE - OJC   CLOUDY    35  32  88 NW14      29.84F WCI  26
6HR MIN TEMP:  33; 6HR MAX TEMP:  35; 6HR PCP:  0.01;

LAWRENCE       CLOUDY    35  30  82 NW16      29.88F WCI  25

$$

MOZ001>008-011>017-020>025-030>033-038>040-044>046-053-054-241900-
...NORTHERN AND CENTRAL MISSOURI...

CITY           SKY/WX    TMP DP  RH WIND       PRES   REMARKS
ST. JOSEPH     CLOUDY    37  33  85 NW15      29.83F WCI  28
6HR MIN TEMP:  35; 6HR MAX TEMP:  37; 6HR PCP: TRACE;

MOSBY          CLOUDY    36  32  87 NW8       29.82F WCI  29
WARRENSBURG    DRIZZLE   36  32  87 W12       29.82S WCI  27
WHITEMAN AFB   DRIZZLE   37  34  89 NW10G21   29.79F WCI  30
6HR MIN TEMP:  35; 6HR MAX TEMP:  38; 6HR PCP: TRACE;

CLINTON        CLOUDY    37  36  93 NW12      29.82F WCI  30
SEDALIA        LGT RAIN  38  34  85 NW9       29.79F WCI  31
6HR MIN TEMP:  36; 6HR MAX TEMP:  38; 6HR PCP:  0.01;

WARSAW         NOT AVBL
CHILLICOTHE      N/A     38  33  82 NW12      29.79F WCI  30
6HR MIN TEMP:  35; 6HR MAX TEMP:  38; 6HR PCP:  0.02;

MOBERLY        CLOUDY    37  32  81 NW13      29.73  WCI  29
KIRKSVILLE     CLOUDY    37  32  82 NW9       29.72F WCI  30
6HR MIN TEMP:  35; 6HR MAX TEMP:  37; 6HR PCP: TRACE;


$$

MOZ041-047>049-056>058-063>065-088>090-097-241900-
...EASTERN AND SOUTHERN MISSOURI...

CITY           SKY/WX    TMP DP  RH WIND       PRES   REMARKS
ST. LOUIS INTL LGT RAIN  40  35  83 W10       29.68F WCI  33
6HR MIN TEMP:  39; 6HR MAX TEMP:  41; 6HR PCP: TRACE;

SPIRIT OF STL  CLOUDY    38  36  92 W7        29.68F FOG     WCI  33
COLUMBIA       CLOUDY    37  34  89 NW14      29.72F WCI  28
JEFFERSON CITY CLOUDY    38  34  85 NW10      29.75S WCI  31
MEXICO         CLOUDY   N/A N/A N/A W8        29.71  HAZE
HANNIBAL       CLOUDY    37  34  87 NW12      29.68F WCI  30
ROLLA          CLOUDY    36  33  89 W12       29.70F WCI  28
OSAGE BEACH    CLOUDY    37  32  81 W7        29.75F WCI  32
SPRINGFIELD    CLOUDY    36  32  85 NW13G22   29.80S WCI  27
BRANSON        CLOUDY    36  32  87 NW13      29.81F WCI  27
NEVADA         CLOUDY    37  34  87 NW15      29.86F WCI  28
JOPLIN         CLOUDY    38  33  82 NW14G22   29.88F WCI  30
WEST PLAINS    CLOUDY    38  31  76 W8        29.75F WCI  32

$$

IAZ060-094-KSZ022-034>040-054-083-096-NEZ052-066-093-241900-
...KANSAS...SOUTHEAST NEBRASKA AND IOWA...

CITY           SKY/WX    TMP DP  RH WIND       PRES   REMARKS
TOPEKA         CLOUDY    36  31  82 NW14      29.90F WCI  27
6HR MIN TEMP:  36; 6HR MAX TEMP:  37; 6HR PCP: TRACE;

MANHATTAN      CLOUDY    34  29  82 NW6       29.91F WCI  29
EMPORIA        CLOUDY    34  29  82 NW12      29.90F WCI  25
CHANUTE        CLOUDY    37  31  78 NW17      29.91F WCI  27
WICHITA        CLOUDY    38  28  67 NW13      29.95F WCI  30
OMAHA          CLOUDY    32  29  88 NW15      29.85F WCI  22
LINCOLN        CLOUDY    30  26  85 W14       29.88F WCI  19
FALLS CITY     CLOUDY    35  30  82 NW16      29.84F WCI  25
LAMONI         CLOUDY    35  31  85 NW16      29.76F WCI  25
DES MOINES     CLOUDY    35  31  85 NW15      29.75F WCI  25

$$




USA.gov is the U.S. government's official web portal to all federal, state and local government web resources and services.